EW9559 Weather Reports


Display with metric or nautical units.
time (UTC)temp
F
wind
direction
speed
MPH
gust
MPH
rain 1hr
in
rain 24hr
in
rain mn
in
humidity
%
barometer
mb
20260510094531 51 262 0.0 1.0 0.00 0.00 0.00 70 1019.7
20260510091531 51 247 0.0 1.0 0.00 0.00 0.00 72 1019.8
20260510090027 52 247 0.0 0.0 0.00 0.00 0.00 71 1019.9
20260510084530 53 247 0.0 2.0 0.00 0.00 0.00 69 1019.9
20260510083029 53 247 0.0 1.0 0.00 0.00 0.00 69 1020.1
20260510081530 53 247 0.0 2.0 0.00 0.00 0.00 69 1020.1
20260510080029 54 266 0.0 2.0 0.00 0.00 0.00 68 1020.1
20260510074533 54 270 0.0 1.0 0.00 0.00 0.00 66 1020.2
20260510073030 54 270 0.0 1.0 0.00 0.00 0.00 66 1020.2
20260510071607 54 270 0.0 1.0 0.00 0.00 0.00 65 1020.2
20260510070029 55 270 0.0 1.0 0.00 0.00 0.00 63 1020.2
20260510064531 56 270 0.0 1.0 0.00 0.00 0.00 62 1020.2
20260510063031 56 270 0.0 1.0 0.00 0.00 0.00 60 1020.0
20260510061528 58 270 0.0 1.0 0.00 0.00 0.00 58 1019.9
20260510060031 58 270 0.0 1.0 0.00 0.00 0.00 57 1019.9
20260510053031 59 265 0.0 1.0 0.00 0.00 0.00 56 1019.8
20260510051528 60 247 0.0 2.0 0.00 0.00 0.00 54 1019.7
20260510050031 61 259 0.0 2.0 0.00 0.00 0.00 53 1019.6
20260510044529 61 263 0.0 2.0 0.00 0.00 0.00 52 1019.4
20260510043032 62 257 1.0 2.0 0.00 0.00 0.00 52 1019.4
20260510041530 63 250 1.0 2.0 0.00 0.00 0.00 52 1019.2
20260510034530 65 247 0.0 2.0 0.00 0.00 0.00 50 1018.8
20260510033035 66 255 0.0 2.0 0.00 0.00 0.00 49 1018.8
20260510023029 70 273 0.0 0.0 0.00 0.00 0.00 49 1018.7
20260510021606 71 292 0.0 0.0 0.00 0.00 0.00 49 1018.7
20260510020031 72 292 0.0 0.0 0.00 0.00 0.00 47 1018.8
20260510014531 73 292 0.0 0.0 0.00 0.00 0.00 49 1018.9
20260510013029 71 292 0.0 0.0 0.00 0.00 0.00 47 1019.0
20260510011531 74 292 0.0 0.0 0.00 0.00 0.00 42 1019.1
20260510010030 78 292 0.0 0.0 0.00 0.00 0.00 37 1019.3
20260510004529 80 292 0.0 0.0 0.00 0.00 0.00 34 1019.4
20260510003031 81 292 0.0 0.0 0.00 0.00 0.00 31 1019.5
20260510001527 79 292 0.0 0.0 0.00 0.00 0.00 31 1019.5
20260510000031 80 232 0.0 0.0 0.00 0.00 0.00 31 1019.6
20260509233030 80 281 0.0 1.0 0.00 0.00 0.00 30 1020.0
20260509231530 80 289 0.0 2.0 0.00 0.00 0.00 29 1020.3
20260509230032 82 309 0.0 3.0 0.00 0.00 0.00 29 1020.6
20260509224530 81 250 0.0 3.0 0.00 0.00 0.00 29 1020.8
20260509223032 80 236 0.0 3.0 0.00 0.00 0.00 29 1021.1
20260509221531 79 314 0.0 4.0 0.00 0.00 0.00 29 1021.4
20260509214606 77 277 0.0 2.0 0.00 0.00 0.00 34 1021.7
20260509213029 76 336 0.0 2.0 0.00 0.00 0.00 36 1021.9
20260509211608 76 238 0.0 2.0 0.00 0.00 0.00 36 1022.1
20260509210032 76 353 0.0 4.0 0.00 0.00 0.00 37 1022.3
20260509204528 76 317 0.0 4.0 0.00 0.00 0.00 38 1022.5
20260509203031 75 281 0.0 4.0 0.00 0.00 0.00 38 1022.6
20260509201602 75 309 0.0 3.0 0.00 0.00 0.00 39 1022.9
20260509200103 75 334 0.0 3.0 0.00 0.00 0.00 39 1023.2
20260509194532 74 319 0.0 3.0 0.00 0.00 0.00 41 1023.4
20260509193107 74 275 0.0 5.0 0.00 0.00 0.00 44 1023.6
20260509191529 71 307 0.0 2.0 0.00 0.00 0.00 47 1023.7
20260509190031 69 347 0.0 3.0 0.00 0.00 0.00 49 1023.9
20260509181646 70 281 0.0 4.0 0.00 0.00 0.00 50 1024.3
20260509180106 69 303 0.0 2.0 0.00 0.00 0.00 51 1024.2
20260509174529 70 278 0.0 1.0 0.00 0.00 0.00 51 1024.4
20260509171530 67 336 0.0 3.0 0.00 0.00 0.00 55 1024.5
20260509170032 67 263 0.0 1.0 0.00 0.00 0.00 55 1024.9
20260509164531 67 213 0.0 2.0 0.00 0.00 0.00 57 1024.9
20260509163031 64 334 0.0 2.0 0.00 0.00 0.00 60 1025.0
20260509160030 60 327 0.0 3.0 0.00 0.00 0.00 66 1025.2
20260509154531 57 308 0.0 2.0 0.00 0.00 0.00 71 1025.3
20260509153032 56 296 0.0 0.0 0.00 0.00 0.00 72 1025.3
20260509151530 55 352 0.0 4.0 0.00 0.00 0.00 71 1025.3
20260509150031 56 330 0.0 4.0 0.00 0.00 0.00 70 1025.4
20260509144532 56 232 0.0 0.0 0.00 0.00 0.00 71 1025.4
20260509141532 50 247 0.0 1.0 0.00 0.00 0.00 84 1025.4
20260509140031 48 247 0.0 1.0 0.00 0.00 0.00 87 1025.3
20260509134528 46 247 0.0 0.0 0.00 0.00 0.00 87 1025.3
20260509133028 46 247 0.0 1.0 0.00 0.00 0.00 86 1025.3
20260509131529 46 247 0.0 1.0 0.00 0.00 0.00 84 1025.1
20260509130032 47 247 0.0 1.0 0.00 0.00 0.00 81 1024.9
20260509124606 50 246 0.0 0.0 0.00 0.00 0.00 78 1024.9
20260509123031 52 206 0.0 2.0 0.00 0.00 0.00 77 1024.8
20260509121527 52 242 0.0 4.0 0.00 0.00 0.00 76 1024.7
20260509120031 52 252 0.0 4.0 0.00 0.00 0.00 78 1024.7
20260509114531 50 247 0.0 5.0 0.00 0.00 0.00 82 1024.6
20260509113030 48 243 0.0 4.0 0.00 0.00 0.00 85 1024.6
20260509110031 48 247 0.0 1.0 0.00 0.00 0.00 81 1024.7
20260509104643 50 247 0.0 1.0 0.00 0.00 0.00 78 1024.7
20260509103031 52 247 0.0 1.0 0.00 0.00 0.00 77 1024.8
20260509101539 52 249 0.0 3.0 0.00 0.00 0.00 76 1024.8
20260509100031 52 226 0.0 3.0 0.00 0.00 0.00 76 1024.8